| time (UTC) | temp F | wind direction | speed knots | gust knots | rain 1hr in | rain 24hr in | rain mn in | humidity % | barometer mb |
| 20260506153352 | 51 | 94 | 3.5 | 6.1 | 0.00 | 0.12 | 0.12 | 92 | 1013.7 |
| 20260506152849 | 51 | 37 | 3.5 | 5.2 | 0.00 | 0.12 | 0.12 | 92 | 1013.4 |
| 20260506152346 | 51 | 72 | 3.5 | 4.3 | 0.07 | 0.12 | 0.12 | 91 | 1013.7 |
| 20260506151844 | 51 | 25 | 2.6 | 2.6 | 0.12 | 0.12 | 0.12 | 91 | 1013.5 |
| 20260506151341 | 51 | 44 | 0.9 | 1.7 | 0.24 | 0.12 | 0.12 | 90 | 1014.0 |
| 20260506150839 | 51 | 15 | 5.2 | 7.0 | 0.59 | 0.11 | 0.11 | 89 | 1013.0 |
| 20260506150335 | 52 | 56 | 5.2 | 7.0 | 0.50 | 0.08 | 0.08 | 88 | 1013.9 |
| 20260506145832 | 52 | 43 | 1.7 | 1.7 | 0.07 | 0.01 | 0.01 | 87 | 1014.8 |
| 20260506145328 | 52 | 62 | 0.0 | 0.9 | 0.00 | 0.00 | 0.00 | 86 | 1015.3 |
| 20260506144826 | 52 | 42 | 1.7 | 1.7 | 0.00 | 0.00 | 0.00 | 86 | 1014.8 |
| 20260506144322 | 52 | 51 | 2.6 | 4.3 | 0.00 | 0.00 | 0.00 | 86 | 1014.5 |
| 20260506143821 | 52 | 58 | 2.6 | 2.6 | 0.00 | 0.00 | 0.00 | 86 | 1014.3 |
| 20260506143317 | 52 | 58 | 0.0 | 0.9 | 0.00 | 0.00 | 0.00 | 86 | 1014.4 |
| 20260506142816 | 52 | 34 | 4.3 | 7.0 | 0.00 | 0.00 | 0.00 | 85 | 1013.3 |
| 20260506142313 | 52 | 38 | 3.5 | 7.0 | 0.00 | 0.00 | 0.00 | 85 | 1012.7 |
| 20260506141811 | 52 | 52 | 3.5 | 6.1 | 0.00 | 0.00 | 0.00 | 84 | 1012.8 |
| 20260506141309 | 52 | 53 | 5.2 | 7.0 | 0.00 | 0.00 | 0.00 | 84 | 1013.0 |
| 20260506140807 | 52 | 56 | 7.0 | 7.8 | 0.00 | 0.00 | 0.00 | 84 | 1013.4 |
| 20260506140303 | 52 | 62 | 2.6 | 4.3 | 0.00 | 0.00 | 0.00 | 84 | 1013.5 |
| 20260506135801 | 52 | 39 | 2.6 | 6.1 | 0.00 | 0.00 | 0.00 | 84 | 1013.8 |
| 20260506135256 | 52 | 53 | 1.7 | 2.6 | 0.00 | 0.00 | 0.00 | 83 | 1013.6 |
| 20260506134754 | 52 | 39 | 2.6 | 2.6 | 0.00 | 0.00 | 0.00 | 83 | 1013.4 |
| 20260506134250 | 52 | 66 | 3.5 | 5.2 | 0.00 | 0.00 | 0.00 | 84 | 1013.4 |
| 20260506133747 | 52 | 80 | 2.6 | 2.6 | 0.00 | 0.00 | 0.00 | 84 | 1012.8 |
| 20260506133244 | 52 | 65 | 2.6 | 2.6 | 0.00 | 0.00 | 0.00 | 84 | 1012.7 |
| 20260506132740 | 52 | 28 | 7.0 | 9.6 | 0.00 | 0.00 | 0.00 | 84 | 1012.5 |
| 20260506132238 | 52 | 52 | 8.7 | 9.6 | 0.00 | 0.00 | 0.00 | 84 | 1012.3 |
| 20260506131736 | 51 | 56 | 6.1 | 7.8 | 0.00 | 0.00 | 0.00 | 84 | 1012.6 |
| 20260506131231 | 51 | 61 | 4.3 | 5.2 | 0.00 | 0.00 | 0.00 | 84 | 1012.7 |
| 20260506130729 | 51 | 28 | 6.1 | 7.0 | 0.00 | 0.00 | 0.00 | 84 | 1012.7 |
| 20260506130225 | 51 | 39 | 6.1 | 11.3 | 0.00 | 0.00 | 0.00 | 84 | 1012.2 |
| 20260506125724 | 51 | 38 | 9.6 | 11.3 | 0.00 | 0.00 | 0.00 | 84 | 1012.0 |
| 20260506125221 | 51 | 80 | 4.3 | 5.2 | 0.00 | 0.00 | 0.00 | 83 | 1012.3 |
| 20260506124719 | 52 | 70 | 3.5 | 4.3 | 0.00 | 0.00 | 0.00 | 83 | 1011.7 |
| 20260506124217 | 52 | 64 | 7.0 | 7.8 | 0.00 | 0.00 | 0.00 | 83 | 1012.0 |
| 20260506123713 | 52 | 28 | 7.0 | 9.6 | 0.00 | 0.00 | 0.00 | 83 | 1011.6 |
| 20260506123213 | 52 | 18 | 4.3 | 6.1 | 0.00 | 0.00 | 0.00 | 82 | 1012.0 |
| 20260506122709 | 52 | 10 | 2.6 | 4.3 | 0.00 | 0.00 | 0.00 | 82 | 1011.8 |
| 20260506122207 | 52 | 40 | 6.1 | 8.7 | 0.00 | 0.00 | 0.00 | 81 | 1011.7 |
| 20260506121704 | 52 | 53 | 2.6 | 5.2 | 0.00 | 0.00 | 0.00 | 81 | 1011.8 |
| 20260506121200 | 53 | 70 | 4.3 | 6.1 | 0.00 | 0.00 | 0.00 | 80 | 1011.4 |
| 20260506120658 | 53 | 36 | 2.6 | 4.3 | 0.00 | 0.00 | 0.00 | 79 | 1011.4 |
| 20260506120155 | 54 | 11 | 4.3 | 6.1 | 0.00 | 0.00 | 0.00 | 78 | 1011.7 |
| 20260506115654 | 54 | 23 | 1.7 | 4.3 | 0.00 | 0.00 | 0.00 | 77 | 1011.6 |
| 20260506115152 | 54 | 45 | 4.3 | 6.1 | 0.00 | 0.00 | 0.00 | 77 | 1011.7 |
| 20260506114648 | 54 | 30 | 3.5 | 5.2 | 0.00 | 0.00 | 0.00 | 77 | 1011.4 |
| 20260506114146 | 54 | 44 | 2.6 | 2.6 | 0.00 | 0.00 | 0.00 | 76 | 1011.3 |
| 20260506113645 | 54 | 48 | 7.8 | 11.3 | 0.00 | 0.00 | 0.00 | 76 | 1011.1 |
| 20260506113142 | 54 | 61 | 8.7 | 9.6 | 0.00 | 0.00 | 0.00 | 75 | 1011.2 |
| 20260506112637 | 54 | 63 | 4.3 | 6.1 | 0.00 | 0.00 | 0.00 | 76 | 1011.0 |
| 20260506112136 | 54 | 19 | 3.5 | 6.1 | 0.00 | 0.00 | 0.00 | 75 | 1010.9 |
| 20260506111633 | 55 | 39 | 7.0 | 9.6 | 0.00 | 0.00 | 0.00 | 75 | 1010.9 |
| 20260506111130 | 55 | 50 | 5.2 | 8.7 | 0.00 | 0.00 | 0.00 | 75 | 1010.8 |
| 20260506110628 | 55 | 35 | 6.1 | 7.0 | 0.00 | 0.00 | 0.00 | 75 | 1010.4 |
| 20260506110125 | 55 | 69 | 3.5 | 4.3 | 0.00 | 0.00 | 0.00 | 75 | 1010.6 |
| 20260506105622 | 55 | 353 | 4.3 | 5.2 | 0.00 | 0.00 | 0.00 | 75 | 1010.6 |
| 20260506105118 | 55 | 65 | 3.5 | 5.2 | 0.00 | 0.00 | 0.00 | 75 | 1010.4 |
| 20260506104617 | 55 | 41 | 3.5 | 6.1 | 0.00 | 0.00 | 0.00 | 75 | 1010.2 |
| 20260506104114 | 55 | 53 | 2.6 | 4.3 | 0.00 | 0.00 | 0.00 | 75 | 1010.1 |
| 20260506103611 | 55 | 56 | 4.3 | 6.1 | 0.00 | 0.00 | 0.00 | 75 | 1010.1 |
| 20260506103108 | 56 | 52 | 1.7 | 2.6 | 0.00 | 0.00 | 0.00 | 75 | 1010.2 |
| 20260506102606 | 56 | 44 | 2.6 | 2.6 | 0.00 | 0.00 | 0.00 | 75 | 1009.9 |
| 20260506102103 | 56 | 58 | 2.6 | 2.6 | 0.00 | 0.00 | 0.00 | 76 | 1010.0 |
| 20260506101600 | 56 | 44 | 6.1 | 7.0 | 0.00 | 0.00 | 0.00 | 76 | 1009.8 |
| 20260506101057 | 56 | 37 | 2.6 | 4.3 | 0.00 | 0.00 | 0.00 | 76 | 1009.7 |
| 20260506100555 | 56 | 67 | 2.6 | 4.3 | 0.00 | 0.00 | 0.00 | 76 | 1009.5 |
| 20260506100053 | 56 | 38 | 2.6 | 4.3 | 0.00 | 0.00 | 0.00 | 77 | 1009.7 |
| 20260506095551 | 56 | 49 | 3.5 | 5.2 | 0.00 | 0.00 | 0.00 | 77 | 1009.5 |
| 20260506095047 | 56 | 53 | 2.6 | 4.3 | 0.00 | 0.00 | 0.00 | 77 | 1009.5 |
| 20260506094545 | 56 | 61 | 2.6 | 5.2 | 0.00 | 0.00 | 0.00 | 77 | 1009.0 |
| 20260506094043 | 56 | 77 | 4.3 | 5.2 | 0.00 | 0.00 | 0.00 | 77 | 1009.3 |
| 20260506093541 | 57 | 34 | 2.6 | 2.6 | 0.00 | 0.00 | 0.00 | 77 | 1009.3 |
| 20260506093038 | 57 | 39 | 2.6 | 2.6 | 0.00 | 0.00 | 0.00 | 76 | 1009.5 |
| 20260506092536 | 56 | 55 | 5.2 | 6.1 | 0.00 | 0.00 | 0.00 | 76 | 1009.5 |
| 20260506092032 | 57 | 56 | 4.3 | 7.0 | 0.00 | 0.00 | 0.00 | 77 | 1009.4 |
| 20260506091531 | 57 | 38 | 2.6 | 5.2 | 0.00 | 0.00 | 0.00 | 77 | 1009.2 |
| 20260506091028 | 57 | 50 | 0.9 | 0.9 | 0.00 | 0.00 | 0.00 | 77 | 1009.2 |
| 20260506090526 | 57 | 57 | 2.6 | 2.6 | 0.00 | 0.00 | 0.00 | 77 | 1009.2 |
| 20260506090021 | 57 | 36 | 2.6 | 2.6 | 0.00 | 0.00 | 0.00 | 77 | 1009.2 |
| 20260506085519 | 57 | 59 | 0.9 | 0.9 | 0.00 | 0.00 | 0.00 | 77 | 1009.2 |
| 20260506085015 | 57 | 57 | 2.6 | 4.3 | 0.00 | 0.00 | 0.00 | 77 | 1009.0 |
| 20260506084512 | 57 | 43 | 6.1 | 7.0 | 0.00 | 0.00 | 0.00 | 77 | 1009.2 |
| 20260506084008 | 57 | 43 | 5.2 | 7.0 | 0.00 | 0.00 | 0.00 | 77 | 1009.2 |
| 20260506083506 | 57 | 57 | 2.6 | 2.6 | 0.00 | 0.00 | 0.00 | 77 | 1008.7 |
| 20260506083003 | 57 | 73 | 4.3 | 7.0 | 0.00 | 0.00 | 0.00 | 77 | 1008.9 |
| 20260506082459 | 57 | 38 | 0.9 | 0.9 | 0.00 | 0.00 | 0.00 | 77 | 1008.8 |
| 20260506081955 | 57 | 43 | 2.6 | 4.3 | 0.00 | 0.00 | 0.00 | 77 | 1008.8 |
| 20260506081454 | 57 | 61 | 1.7 | 2.6 | 0.00 | 0.00 | 0.00 | 77 | 1008.7 |
| 20260506080951 | 57 | 55 | 2.6 | 2.6 | 0.00 | 0.00 | 0.00 | 78 | 1009.0 |
| 20260506080448 | 58 | 57 | 2.6 | 4.3 | 0.00 | 0.00 | 0.00 | 77 | 1008.6 |
| 20260506073431 | 58 | 53 | 5.2 | 7.8 | 0.00 | 0.00 | 0.00 | 77 | 1008.7 |
| 20260506072929 | 58 | 41 | 1.7 | 1.7 | 0.00 | 0.00 | 0.00 | 78 | 1008.6 |
| 20260506072426 | 58 | 52 | 2.6 | 4.3 | 0.00 | 0.00 | 0.00 | 78 | 1008.5 |
| 20260506071924 | 58 | 80 | 1.7 | 1.7 | 0.00 | 0.00 | 0.00 | 79 | 1008.0 |
| 20260506071421 | 58 | 68 | 1.7 | 1.7 | 0.00 | 0.00 | 0.00 | 79 | 1008.3 |
| 20260506070918 | 58 | 60 | 0.9 | 0.9 | 0.00 | 0.00 | 0.00 | 79 | 1008.5 |
| 20260506070415 | 58 | 18 | 3.5 | 5.2 | 0.00 | 0.00 | 0.00 | 80 | 1008.5 |
| 20260506062352 | 59 | 63 | 5.2 | 7.0 | 0.00 | 0.00 | 0.00 | 80 | 1008.4 |
| 20260506061848 | 59 | 32 | 5.2 | 6.1 | 0.00 | 0.00 | 0.00 | 80 | 1008.4 |
| 20260506061345 | 59 | 34 | 4.3 | 5.2 | 0.00 | 0.00 | 0.00 | 80 | 1008.5 |
| 20260506060843 | 59 | 52 | 2.6 | 5.2 | 0.00 | 0.00 | 0.00 | 80 | 1008.4 |
| 20260506060341 | 59 | 356 | 4.3 | 6.1 | 0.00 | 0.00 | 0.00 | 80 | 1008.5 |
| 20260506051313 | 60 | 61 | 4.3 | 7.0 | 0.00 | 0.00 | 0.00 | 79 | 1008.6 |
| 20260506050810 | 61 | 50 | 5.2 | 6.1 | 0.00 | 0.00 | 0.00 | 79 | 1008.6 |
| 20260506050308 | 61 | 69 | 3.5 | 5.2 | 0.00 | 0.00 | 0.00 | 79 | 1008.7 |
| 20260506044758 | 61 | 67 | 5.2 | 7.8 | 0.00 | 0.00 | 0.00 | 79 | 1008.2 |
| 20260506044255 | 61 | 45 | 4.3 | 6.1 | 0.00 | 0.00 | 0.00 | 78 | 1008.3 |
| 20260506043752 | 62 | 60 | 6.1 | 7.8 | 0.00 | 0.00 | 0.00 | 78 | 1008.3 |
| 20260506043250 | 62 | 62 | 2.6 | 2.6 | 0.00 | 0.00 | 0.00 | 78 | 1008.1 |
| 20260506042749 | 62 | 52 | 7.0 | 8.7 | 0.00 | 0.00 | 0.00 | 78 | 1008.3 |
| 20260506042247 | 62 | 51 | 5.2 | 7.8 | 0.00 | 0.00 | 0.00 | 77 | 1008.4 |
| 20260506041745 | 62 | 35 | 6.1 | 7.8 | 0.00 | 0.00 | 0.00 | 77 | 1008.3 |
| 20260506041241 | 62 | 22 | 7.0 | 7.8 | 0.00 | 0.00 | 0.00 | 77 | 1008.3 |
| 20260506040739 | 63 | 73 | 6.1 | 8.7 | 0.00 | 0.00 | 0.00 | 77 | 1008.4 |
| 20260506040236 | 63 | 56 | 4.3 | 6.1 | 0.00 | 0.00 | 0.00 | 77 | 1008.4 |
| 20260506035733 | 63 | 77 | 3.5 | 5.2 | 0.00 | 0.00 | 0.00 | 77 | 1008.2 |
| 20260506035230 | 63 | 13 | 3.5 | 7.0 | 0.00 | 0.00 | 0.00 | 77 | 1008.0 |
| 20260506034726 | 64 | 62 | 0.9 | 1.7 | 0.00 | 0.00 | 0.00 | 77 | 1007.8 |
| 20260506034224 | 64 | 29 | 6.1 | 7.8 | 0.00 | 0.00 | 0.00 | 77 | 1007.9 |
| 20260506033721 | 64 | 29 | 5.2 | 7.0 | 0.00 | 0.00 | 0.00 | 77 | 1007.9 |
| 20260506033218 | 64 | 62 | 4.3 | 5.2 | 0.00 | 0.00 | 0.00 | 77 | 1007.7 |
| 20260506032715 | 64 | 76 | 2.6 | 5.2 | 0.00 | 0.00 | 0.00 | 76 | 1007.6 |
| 20260506032212 | 65 | 34 | 3.5 | 7.8 | 0.00 | 0.00 | 0.00 | 76 | 1007.4 |
| 20260506031708 | 65 | 85 | 4.3 | 7.8 | 0.00 | 0.00 | 0.00 | 75 | 1007.3 |
| 20260506031206 | 66 | 52 | 4.3 | 7.0 | 0.00 | 0.00 | 0.00 | 75 | 1007.0 |
| 20260506030704 | 66 | 54 | 7.0 | 8.7 | 0.00 | 0.00 | 0.00 | 74 | 1007.2 |
| 20260506030201 | 66 | 353 | 3.5 | 4.3 | 0.00 | 0.00 | 0.00 | 74 | 1006.9 |
| 20260506025658 | 66 | 48 | 3.5 | 4.3 | 0.00 | 0.00 | 0.00 | 73 | 1007.2 |
| 20260506025154 | 66 | 59 | 3.5 | 6.1 | 0.00 | 0.00 | 0.00 | 73 | 1006.9 |
| 20260506024651 | 66 | 60 | 6.1 | 8.7 | 0.00 | 0.00 | 0.00 | 73 | 1006.7 |
| 20260506024148 | 67 | 80 | 4.3 | 8.7 | 0.00 | 0.00 | 0.00 | 72 | 1006.7 |
| 20260506023644 | 67 | 53 | 7.0 | 8.7 | 0.00 | 0.00 | 0.00 | 72 | 1006.7 |
| 20260506023141 | 67 | 45 | 1.7 | 4.3 | 0.00 | 0.00 | 0.00 | 72 | 1006.5 |
| 20260506022638 | 67 | 60 | 4.3 | 7.0 | 0.00 | 0.00 | 0.00 | 72 | 1006.2 |
| 20260506022136 | 67 | 49 | 4.3 | 8.7 | 0.00 | 0.00 | 0.00 | 71 | 1006.5 |
| 20260506021634 | 67 | 54 | 4.3 | 7.0 | 0.00 | 0.00 | 0.00 | 71 | 1006.2 |
| 20260506021130 | 68 | 68 | 3.5 | 6.1 | 0.00 | 0.00 | 0.00 | 70 | 1006.0 |
| 20260506020627 | 68 | 50 | 1.7 | 1.7 | 0.00 | 0.00 | 0.00 | 70 | 1006.0 |
| 20260506020125 | 68 | 51 | 5.2 | 6.1 | 0.00 | 0.00 | 0.00 | 69 | 1006.0 |
| 20260506015622 | 68 | 52 | 6.1 | 7.8 | 0.00 | 0.00 | 0.00 | 69 | 1006.0 |
| 20260506015119 | 68 | 82 | 2.6 | 4.3 | 0.00 | 0.00 | 0.00 | 70 | 1005.8 |
| 20260506014617 | 68 | 54 | 2.6 | 2.6 | 0.00 | 0.00 | 0.00 | 71 | 1005.6 |
| 20260506014112 | 68 | 59 | 7.8 | 8.7 | 0.00 | 0.00 | 0.00 | 70 | 1005.3 |
| 20260506013611 | 69 | 61 | 4.3 | 7.0 | 0.00 | 0.00 | 0.00 | 71 | 1005.3 |
| 20260506013107 | 69 | 43 | 7.8 | 8.7 | 0.00 | 0.00 | 0.00 | 71 | 1005.6 |
| 20260506012603 | 70 | 55 | 8.7 | 9.6 | 0.00 | 0.00 | 0.00 | 70 | 1005.2 |
| 20260506012100 | 70 | 56 | 5.2 | 7.0 | 0.00 | 0.00 | 0.00 | 70 | 1005.1 |
| 20260506011558 | 70 | 65 | 1.7 | 1.7 | 0.00 | 0.00 | 0.00 | 70 | 1004.9 |
| 20260506011054 | 71 | 35 | 3.5 | 7.0 | 0.00 | 0.00 | 0.00 | 70 | 1004.9 |
| 20260506010554 | 71 | 31 | 6.1 | 8.7 | 0.00 | 0.00 | 0.00 | 70 | 1004.8 |
| 20260506010050 | 71 | 30 | 2.6 | 4.3 | 0.00 | 0.00 | 0.00 | 69 | 1004.6 |
| 20260506005547 | 72 | 52 | 5.2 | 7.0 | 0.00 | 0.00 | 0.00 | 69 | 1004.4 |
| 20260506005043 | 72 | 74 | 6.1 | 7.8 | 0.00 | 0.00 | 0.00 | 68 | 1004.1 |
| 20260506004540 | 72 | 70 | 6.1 | 7.8 | 0.00 | 0.00 | 0.00 | 68 | 1004.2 |
| 20260506004037 | 72 | 53 | 6.1 | 8.7 | 0.00 | 0.00 | 0.00 | 68 | 1004.4 |
| 20260506003533 | 73 | 84 | 3.5 | 4.3 | 0.00 | 0.00 | 0.00 | 67 | 1004.2 |
| 20260506003030 | 73 | 52 | 4.3 | 5.2 | 0.00 | 0.00 | 0.00 | 67 | 1004.0 |
| 20260506002526 | 73 | 34 | 3.5 | 4.3 | 0.00 | 0.00 | 0.00 | 67 | 1003.9 |
| 20260506002021 | 74 | 44 | 6.1 | 9.6 | 0.00 | 0.00 | 0.00 | 67 | 1004.2 |
| 20260506001518 | 74 | 21 | 2.6 | 4.3 | 0.00 | 0.00 | 0.00 | 67 | 1004.1 |
| 20260506001015 | 75 | 54 | 4.3 | 8.7 | 0.00 | 0.00 | 0.00 | 65 | 1003.6 |
| 20260506000513 | 76 | 59 | 7.0 | 9.6 | 0.00 | 0.00 | 0.00 | 63 | 1003.7 |
| 20260506000010 | 76 | 49 | 0.9 | 1.7 | 0.00 | 0.00 | 0.00 | 63 | 1003.7 |
| 20260505235508 | 76 | 73 | 3.5 | 5.2 | 0.00 | 0.00 | 0.00 | 62 | 1003.5 |
| 20260505235004 | 76 | 87 | 4.3 | 7.0 | 0.00 | 0.00 | 0.00 | 62 | 1003.5 |
| 20260505234502 | 77 | 53 | 2.6 | 4.3 | 0.00 | 0.00 | 0.00 | 62 | 1003.7 |
| 20260505233958 | 77 | 52 | 2.6 | 2.6 | 0.00 | 0.00 | 0.00 | 61 | 1003.6 |
| 20260505233456 | 77 | 70 | 4.3 | 7.0 | 0.00 | 0.00 | 0.00 | 60 | 1003.6 |
| 20260505232953 | 78 | 56 | 5.2 | 8.7 | 0.00 | 0.00 | 0.00 | 60 | 1003.6 |
| 20260505232451 | 78 | 28 | 4.3 | 6.1 | 0.00 | 0.00 | 0.00 | 60 | 1003.4 |
| 20260505231948 | 78 | 63 | 2.6 | 4.3 | 0.00 | 0.00 | 0.00 | 59 | 1003.6 |
| 20260505231445 | 79 | 77 | 0.9 | 0.9 | 0.00 | 0.00 | 0.00 | 58 | 1003.6 |
| 20260505230943 | 79 | 69 | 3.5 | 5.2 | 0.00 | 0.00 | 0.00 | 58 | 1003.5 |
| 20260505230441 | 79 | 43 | 4.3 | 6.1 | 0.00 | 0.00 | 0.00 | 58 | 1003.1 |
| 20260505225937 | 80 | 11 | 3.5 | 6.1 | 0.00 | 0.00 | 0.00 | 57 | 1003.2 |
| 20260505225434 | 81 | 66 | 2.6 | 4.3 | 0.00 | 0.00 | 0.00 | 58 | 1003.4 |
| 20260505224930 | 81 | 95 | 0.9 | 1.7 | 0.00 | 0.00 | 0.00 | 57 | 1003.2 |
| 20260505224427 | 81 | 84 | 3.5 | 5.2 | 0.00 | 0.00 | 0.00 | 57 | 1002.9 |
| 20260505223924 | 82 | 40 | 2.6 | 4.3 | 0.00 | 0.00 | 0.00 | 57 | 1002.9 |
| 20260505223421 | 83 | 64 | 0.9 | 0.9 | 0.00 | 0.00 | 0.00 | 58 | 1002.9 |
| 20260505222917 | 83 | 41 | 4.3 | 5.2 | 0.00 | 0.00 | 0.00 | 57 | 1002.7 |
| 20260505222414 | 84 | 60 | 3.5 | 6.1 | 0.00 | 0.00 | 0.00 | 55 | 1002.5 |
| 20260505221910 | 85 | 96 | 0.9 | 0.9 | 0.00 | 0.00 | 0.00 | 52 | 1002.7 |
| 20260505221407 | 86 | 27 | 2.6 | 2.6 | 0.00 | 0.00 | 0.00 | 48 | 1002.4 |
| 20260505220904 | 86 | 344 | 0.0 | 0.9 | 0.00 | 0.00 | 0.00 | 47 | 1002.3 |
| 20260505220401 | 86 | 50 | 2.6 | 5.2 | 0.00 | 0.00 | 0.00 | 46 | 1002.5 |
| 20260505215859 | 86 | 71 | 2.6 | 4.3 | 0.00 | 0.00 | 0.00 | 45 | 1002.2 |
| 20260505215357 | 86 | 45 | 2.6 | 4.3 | 0.00 | 0.00 | 0.00 | 44 | 1002.4 |
| 20260505214854 | 86 | 32 | 1.7 | 2.6 | 0.00 | 0.00 | 0.00 | 45 | 1002.3 |
| 20260505214352 | 85 | 60 | 2.6 | 4.3 | 0.00 | 0.00 | 0.00 | 46 | 1002.4 |
| 20260505213849 | 87 | 43 | 1.7 | 1.7 | 0.00 | 0.00 | 0.00 | 45 | 1002.5 |
| 20260505213347 | 87 | 82 | 0.9 | 1.7 | 0.00 | 0.00 | 0.00 | 46 | 1002.4 |
| 20260505212842 | 89 | 5 | 5.2 | 6.1 | 0.00 | 0.00 | 0.00 | 45 | 1002.3 |
| 20260505212339 | 91 | 77 | 2.6 | 5.2 | 0.00 | 0.00 | 0.00 | 44 | 1002.5 |
| 20260505211835 | 91 | 191 | 0.9 | 1.7 | 0.00 | 0.00 | 0.00 | 47 | 1002.5 |
| 20260505211334 | 91 | 190 | 0.0 | 0.9 | 0.00 | 0.00 | 0.00 | 46 | 1002.4 |
| 20260505210830 | 92 | 88 | 0.9 | 0.9 | 0.00 | 0.00 | 0.00 | 45 | 1002.5 |
| 20260505210327 | 92 | 177 | 0.0 | 0.9 | 0.00 | 0.00 | 0.00 | 45 | 1002.7 |
| 20260505205823 | 92 | 156 | 0.0 | 0.9 | 0.00 | 0.00 | 0.00 | 45 | 1002.9 |
| 20260505205322 | 92 | 154 | 0.0 | 0.0 | 0.00 | 0.00 | 0.00 | 46 | 1002.6 |
| 20260505204818 | 92 | 158 | 0.0 | 0.0 | 0.00 | 0.00 | 0.00 | 47 | 1002.9 |
| 20260505204316 | 91 | 154 | 0.9 | 0.9 | 0.00 | 0.00 | 0.00 | 48 | 1002.9 |
| 20260505203814 | 92 | 269 | 0.9 | 2.6 | 0.00 | 0.00 | 0.00 | 47 | 1003.0 |
| 20260505203310 | 91 | 192 | 0.0 | 1.7 | 0.00 | 0.00 | 0.00 | 48 | 1003.0 |
| 20260505202806 | 91 | 135 | 0.9 | 0.9 | 0.00 | 0.00 | 0.00 | 49 | 1003.1 |
| 20260505202306 | 91 | 229 | 1.7 | 2.6 | 0.00 | 0.00 | 0.00 | 47 | 1003.2 |
| 20260505201759 | 91 | 175 | 0.0 | 0.0 | 0.00 | 0.00 | 0.00 | 48 | 1003.1 |
| 20260505201257 | 91 | 185 | 0.9 | 0.9 | 0.00 | 0.00 | 0.00 | 48 | 1003.3 |
| 20260505200755 | 91 | 215 | 1.7 | 1.7 | 0.00 | 0.00 | 0.00 | 46 | 1003.2 |
| 20260505200252 | 91 | 163 | 0.9 | 0.9 | 0.00 | 0.00 | 0.00 | 49 | 1003.2 |
| 20260505195747 | 91 | 164 | 0.9 | 1.7 | 0.00 | 0.00 | 0.00 | 50 | 1003.5 |
| 20260505195245 | 90 | 105 | 1.7 | 1.7 | 0.00 | 0.00 | 0.00 | 50 | 1003.3 |
| 20260505194742 | 89 | 176 | 0.9 | 0.9 | 0.00 | 0.00 | 0.00 | 54 | 1003.2 |
| 20260505194238 | 88 | 154 | 1.7 | 2.6 | 0.00 | 0.00 | 0.00 | 56 | 1003.4 |
| 20260505193734 | 89 | 289 | 4.3 | 6.1 | 0.00 | 0.00 | 0.00 | 55 | 1003.4 |
| 20260505193232 | 89 | 206 | 4.3 | 5.2 | 0.00 | 0.00 | 0.00 | 53 | 1003.3 |
| 20260505192730 | 89 | 279 | 2.6 | 4.3 | 0.00 | 0.00 | 0.00 | 55 | 1003.2 |
| 20260505192227 | 88 | 196 | 1.7 | 1.7 | 0.00 | 0.00 | 0.00 | 57 | 1003.4 |
| 20260505191725 | 88 | 200 | 4.3 | 7.0 | 0.00 | 0.00 | 0.00 | 55 | 1003.3 |
| 20260505191224 | 87 | 198 | 1.7 | 2.6 | 0.00 | 0.00 | 0.00 | 56 | 1003.2 |
| 20260505190719 | 87 | 193 | 2.6 | 2.6 | 0.00 | 0.00 | 0.00 | 57 | 1003.2 |
| 20260505190219 | 87 | 211 | 4.3 | 8.7 | 0.00 | 0.00 | 0.00 | 56 | 1003.2 |
| 20260505185716 | 87 | 214 | 1.7 | 1.7 | 0.00 | 0.00 | 0.00 | 58 | 1003.3 |
| 20260505185212 | 87 | 243 | 2.6 | 4.3 | 0.00 | 0.00 | 0.00 | 59 | 1003.3 |
| 20260505184708 | 86 | 256 | 0.9 | 2.6 | 0.00 | 0.00 | 0.00 | 59 | 1003.1 |
| 20260505184206 | 85 | 234 | 2.6 | 4.3 | 0.00 | 0.00 | 0.00 | 59 | 1003.3 |
| 20260505183703 | 85 | 159 | 0.9 | 0.9 | 0.00 | 0.00 | 0.00 | 60 | 1003.3 |
| 20260505183200 | 85 | 202 | 1.7 | 1.7 | 0.00 | 0.00 | 0.00 | 61 | 1003.5 |
| 20260505182656 | 85 | 205 | 2.6 | 4.3 | 0.00 | 0.00 | 0.00 | 62 | 1003.4 |
| 20260505182154 | 84 | 214 | 1.7 | 1.7 | 0.00 | 0.00 | 0.00 | 63 | 1003.6 |
| 20260505181650 | 84 | 227 | 2.6 | 4.3 | 0.00 | 0.00 | 0.00 | 64 | 1003.6 |
| 20260505181148 | 84 | 268 | 2.6 | 4.3 | 0.00 | 0.00 | 0.00 | 64 | 1003.5 |
| 20260505180643 | 84 | 100 | 1.7 | 1.7 | 0.00 | 0.00 | 0.00 | 64 | 1003.6 |
| 20260505180141 | 84 | 180 | 0.9 | 1.7 | 0.00 | 0.00 | 0.00 | 66 | 1003.6 |
| 20260505175637 | 84 | 188 | 2.6 | 4.3 | 0.00 | 0.00 | 0.00 | 64 | 1003.7 |
| 20260505175133 | 83 | 180 | 0.9 | 0.9 | 0.00 | 0.00 | 0.00 | 66 | 1003.6 |
| 20260505174630 | 82 | 198 | 3.5 | 6.1 | 0.00 | 0.00 | 0.00 | 66 | 1003.5 |
| 20260505174126 | 82 | 237 | 6.1 | 7.8 | 0.00 | 0.00 | 0.00 | 65 | 1003.4 |
| 20260505173623 | 82 | 285 | 1.7 | 1.7 | 0.00 | 0.00 | 0.00 | 67 | 1003.4 |
| 20260505173120 | 82 | 225 | 2.6 | 7.0 | 0.00 | 0.00 | 0.00 | 67 | 1003.4 |
| 20260505172618 | 82 | 231 | 5.2 | 7.8 | 0.00 | 0.00 | 0.00 | 66 | 1003.7 |
| 20260505172114 | 83 | 298 | 6.1 | 11.3 | 0.00 | 0.00 | 0.00 | 65 | 1003.7 |
| 20260505171608 | 84 | 162 | 0.9 | 1.7 | 0.00 | 0.00 | 0.00 | 65 | 1003.3 |
| 20260505171106 | 83 | 251 | 1.7 | 1.7 | 0.00 | 0.00 | 0.00 | 67 | 1003.5 |
| 20260505170603 | 82 | 168 | 2.6 | 4.3 | 0.00 | 0.00 | 0.00 | 68 | 1003.5 |
| 20260505170059 | 82 | 192 | 3.5 | 5.2 | 0.00 | 0.00 | 0.00 | 66 | 1003.6 |
| 20260505165554 | 83 | 124 | 1.7 | 2.6 | 0.00 | 0.00 | 0.00 | 66 | 1003.6 |
| 20260505165050 | 82 | 227 | 2.6 | 6.1 | 0.00 | 0.00 | 0.00 | 67 | 1003.6 |
| 20260505164546 | 82 | 232 | 4.3 | 6.1 | 0.00 | 0.00 | 0.00 | 67 | 1003.5 |
| 20260505164044 | 82 | 210 | 7.0 | 9.6 | 0.00 | 0.00 | 0.00 | 66 | 1003.3 |
| 20260505163543 | 82 | 226 | 5.2 | 6.1 | 0.00 | 0.00 | 0.00 | 68 | 1003.6 |
| 20260505163039 | 82 | 217 | 7.0 | 9.6 | 0.00 | 0.00 | 0.00 | 67 | 1003.4 |
| 20260505162538 | 81 | 239 | 5.2 | 8.7 | 0.00 | 0.00 | 0.00 | 68 | 1003.4 |
| 20260505162035 | 80 | 222 | 6.1 | 7.8 | 0.00 | 0.00 | 0.00 | 70 | 1003.5 |
| 20260505161532 | 80 | 209 | 1.7 | 1.7 | 0.00 | 0.00 | 0.00 | 71 | 1003.7 |
| 20260505161029 | 80 | 227 | 6.1 | 8.7 | 0.00 | 0.00 | 0.00 | 71 | 1003.4 |
| 20260505160527 | 79 | 154 | 5.2 | 7.8 | 0.00 | 0.00 | 0.00 | 72 | 1003.5 |